This demonstration page uses our WeatherBlox Daily Observations layout. Learn more.

Left ArrowRight Arrow

39.95238, -75.16362

Hourly Observations for May 17, 2016

Temp ( °F °C ) Dew Point ( °F °C ) Humidity (%) Winds ( mph kmh ) Pressure ( in mb ) Visibility ( mi km ) Precip ( " mm )
12:54 am 00:54 Mostly Cloudy 56 13.3 39 3.9 53 53 SW 10 17 30.21 1023 10 16 0.00 0.00
1:54 am 01:54 Mostly Cloudy 55 12.8 39 3.9 55 55 SW 8 13 30.21 1023 10 16 0.00 0.00
2:54 am 02:54 Mostly Cloudy 54 12.2 40 4.4 59 59 SW 5 7 30.20 1023 10 16 0.00 0.00
3:54 am 03:54 Mostly Cloudy 55 12.8 40 4.4 57 57 SW 8 13 30.20 1023 10 16 0.00 0.00
4:54 am 04:54 Cloudy 55 12.8 40 4.4 57 57 SW 8 13 30.20 1023 10 16 0.00 0.00
5:54 am 05:54 Cloudy 54 12.2 41 5 62 62 SSW 6 9 30.21 1023 10 16 0.00 0.00
6:54 am 06:54 Cloudy 55 12.8 42 5.6 62 62 SW 6 9 30.22 1023 10 16 0.00 0.00
7:54 am 07:54 Cloudy 56 13.3 43 6.1 62 62 SW 7 11 30.23 1024 10 16 0.00 0.00
8:54 am 08:54 Cloudy 56 13.3 45 7.2 67 67 SSW 5 7 30.24 1024 10 16 0.00 0.00
9:54 am 09:54 Cloudy 59 15 46 7.8 62 62 SSW 8 13 30.24 1024 10 16 0.00 0.00
10:54 am 10:54 Cloudy 61 16.1 45 7.2 56 56 WSW 14 22 30.25 1024 10 16 0.00 0.00
11:54 am 11:54 Cloudy with Light Rain 60 15.6 48 8.9 65 65 SW 9 15 30.23 1024 10 16 0.00 0.03
12:54 pm 12:54 Cloudy with Light Rain 58 14.4 48 8.9 70 70 SW 8 13 30.22 1023 9 14 0.02 0.51
1:42 pm 13:42 Cloudy with Light Rain 57 13.9 48 8.9 72 72 SW 6 9 30.21 1023 6 10 0.01 0.25
1:54 pm 13:54 Cloudy with Light Rain 57 13.9 48 8.9 72 72 SW 5 7 30.21 1023 7 11 0.02 0.51
2:13 pm 14:13 Cloudy with Light Rain 56 13.3 47 8.3 72 72 SSW 5 7 30.21 1023 6 10 0.01 0.25
2:27 pm 14:27 Cloudy with Light Rain 56 13.3 47 8.3 72 72 SW 3 6 30.21 1023 7 11 0.02 0.51
2:54 pm 14:54 Cloudy with Light Rain 56 13.3 48 8.9 75 75 Calm 30.20 1023 10 16 0.02 0.51
3:54 pm 15:54 Cloudy 56 13.3 48 8.9 75 75 NW 6 9 30.19 1022 10 16 0.00 0.03
4:54 pm 16:54 Cloudy with Light Rain 54 12.2 48 8.9 80 80 Calm 30.18 1022 7 11 0.00 0.03
4:57 pm 16:57 Cloudy with Light Rain 54 12.2 48 8.9 80 80 Calm 30.18 1022 3 5 0.00 0.03
5:10 pm 17:10 Cloudy with Rain 54 12.2 48 8.9 80 80 VRB 3 6 30.18 1022 3 5 0.01 0.25
5:29 pm 17:29 Cloudy with Light Rain 53 11.7 49 9.4 86 86 SSE 3 6 30.18 1022 6 10 0.03 0.76
5:45 pm 17:45 Cloudy with Light Rain 53 11.7 49 9.4 86 86 Calm 30.18 1022 7 11 0.04 1.02
5:54 pm 17:54 Cloudy with Light Rain 53 11.7 49 9.4 86 86 Calm 30.17 1022 7 11 0.04 1.02
6:40 pm 18:40 Cloudy with Light Rain 54 12.2 50 10 87 87 VRB 3 6 30.15 1021 10 16 0.02 0.51
6:54 pm 18:54 Cloudy 54 12.2 50 10 87 87 Calm 30.15 1021 10 16 0.02 0.51
7:54 pm 19:54 Cloudy 54 12.2 50 10 87 87 S 5 7 30.14 1021 10 16 0.00 0.00
8:50 pm 20:50 Cloudy 54 12 50 10 88 88 W 6 9 30.15 1021 10 16 0.00 0.00
8:54 pm 20:54 Cloudy 54 12.2 50 10 87 87 WSW 5 7 30.15 1021 10 16 0.00 0.00
9:46 pm 21:46 Partly Cloudy 53 11.7 49 9.4 86 86 W 5 7 30.15 1021 10 16 0.00 0.00
9:54 pm 21:54 Partly Cloudy 53 11.7 49 9.4 86 86 WSW 3 6 30.16 1021 10 16 0.00 0.00
10:10 pm 22:10 Mostly Cloudy 52 11.1 49 9.4 89 89 WSW 5 7 30.15 1021 10 16 0.00 0.00
10:20 pm 22:20 Mostly Cloudy 53 11.7 50 10 89 89 Calm 30.15 1021 10 16 0.00 0.00
10:54 pm 22:54 Mostly Cloudy 53 11.7 49 9.4 86 86 WNW 3 6 30.15 1021 10 16 0.00 0.00
10:57 pm 22:57 Partly Cloudy 53 11.7 49 9.4 86 86 W 5 7 30.15 1021 8 13 0.00 0.00
11:10 pm 23:10 Mostly Cloudy with Mist and Fog 53 11.7 50 10 89 89 Calm 30.15 1021 6 10 0.00 0.00
11:54 pm 23:54 Cloudy with Mist and Fog 53 11.7 50 10 89 89 SW 3 6 30.15 1021 6 10 0.00 0.00

Powered by AerisWeather